| time (UTC) | temp C | wind direction | speed KPH | gust KPH | rain 1hr cm | rain 24hr cm | rain mn cm | humidity % | barometer mb |
| 20260510175601 | 27 | 354 | 1.6 | 4.8 | 0.00 | 0.15 | 0.03 | 72 | 1016.6 |
| 20260510175044 | 27 | 112 | 1.6 | 6.4 | 0.00 | 0.15 | 0.03 | 68 | 1016.6 |
| 20260510175040 | 27 | 309 | 1.6 | 6.4 | 0.00 | 0.15 | 0.03 | 72 | 1016.6 |
| 20260510174814 | 27 | 112 | 1.6 | 6.4 | 0.00 | 0.15 | 0.03 | 68 | 1016.6 |
| 20260510174032 | 27 | 44 | 1.6 | 4.8 | 0.00 | 0.15 | 0.03 | 69 | 1016.7 |
| 20260510173533 | 27 | 58 | 1.6 | 4.8 | 0.00 | 0.15 | 0.03 | 69 | 1016.7 |
| 20260510173044 | 27 | 70 | 3.2 | 6.4 | 0.00 | 0.15 | 0.03 | 71 | 1016.7 |
| 20260510172532 | 26 | 6 | 3.2 | 9.7 | 0.00 | 0.15 | 0.03 | 71 | 1016.8 |
| 20260510172038 | 26 | 357 | 1.6 | 9.7 | 0.00 | 0.15 | 0.03 | 72 | 1016.9 |
| 20260510171816 | 26 | 30 | 3.2 | 8.0 | 0.00 | 0.15 | 0.03 | 72 | 1016.9 |
| 20260510171042 | 26 | 346 | 3.2 | 9.7 | 0.00 | 0.18 | 0.03 | 71 | 1017.1 |
| 20260510171036 | 26 | 28 | 3.2 | 9.7 | 0.00 | 0.18 | 0.03 | 71 | 1017.0 |
| 20260510170030 | 26 | 93 | 1.6 | 9.7 | 0.00 | 0.20 | 0.03 | 72 | 1017.1 |
| 20260510165554 | 27 | 214 | 1.6 | 9.7 | 0.00 | 0.20 | 0.03 | 72 | 1017.1 |
| 20260510165540 | 26 | 338 | 1.6 | 9.7 | 0.00 | 0.20 | 0.03 | 71 | 1017.1 |
| 20260510164530 | 27 | 115 | 1.6 | 6.4 | 0.00 | 0.23 | 0.03 | 69 | 1017.2 |
| 20260510164036 | 27 | 306 | 1.6 | 6.4 | 0.00 | 0.23 | 0.03 | 72 | 1017.1 |
| 20260510163531 | 27 | 8 | 1.6 | 6.4 | 0.00 | 0.28 | 0.03 | 71 | 1017.1 |
| 20260510163037 | 26 | 295 | 1.6 | 6.4 | 0.00 | 0.30 | 0.03 | 75 | 1017.1 |
| 20260510162530 | 26 | 348 | 1.6 | 4.8 | 0.00 | 0.38 | 0.03 | 75 | 1017.2 |
| 20260510162033 | 26 | 295 | 1.6 | 6.4 | 0.00 | 0.46 | 0.03 | 76 | 1017.1 |
| 20260510161528 | 26 | 65 | 1.6 | 6.4 | 0.00 | 0.51 | 0.03 | 77 | 1017.1 |
| 20260510161028 | 26 | 305 | 1.6 | 4.8 | 0.00 | 0.53 | 0.03 | 77 | 1017.0 |
| 20260510160530 | 25 | 171 | 1.6 | 4.8 | 0.00 | 0.56 | 0.03 | 77 | 1017.0 |
| 20260510160038 | 25 | 278 | 1.6 | 6.4 | 0.00 | 0.61 | 0.03 | 78 | 1017.0 |
| 20260510155528 | 25 | 349 | 1.6 | 6.4 | 0.00 | 0.66 | 0.03 | 77 | 1017.0 |
| 20260510155044 | 25 | 37 | 3.2 | 6.4 | 0.00 | 0.74 | 0.03 | 81 | 1017.0 |
| 20260510155028 | 25 | 48 | 1.6 | 6.4 | 0.00 | 0.71 | 0.03 | 81 | 1017.0 |
| 20260510154029 | 24 | 49 | 3.2 | 8.0 | 0.00 | 0.76 | 0.03 | 82 | 1017.0 |
| 20260510153903 | 24 | 58 | 1.6 | 6.4 | 0.00 | 0.91 | 0.03 | 84 | 1016.9 |
| 20260510153758 | 24 | 75 | 3.2 | 8.0 | 0.00 | 0.91 | 0.03 | 82 | 1016.9 |
| 20260510152526 | 24 | 12 | 0.0 | 3.2 | 0.00 | 0.91 | 0.03 | 87 | 1016.9 |
| 20260510152026 | 23 | 207 | 0.0 | 4.8 | 0.00 | 0.91 | 0.03 | 91 | 1017.0 |
| 20260510151526 | 23 | 8 | 1.6 | 4.8 | 0.00 | 0.91 | 0.03 | 92 | 1016.9 |
| 20260510151026 | 22 | 51 | 1.6 | 4.8 | 0.00 | 0.91 | 0.03 | 92 | 1016.9 |
| 20260510150530 | 22 | 56 | 3.2 | 6.4 | 0.00 | 0.91 | 0.03 | 94 | 1017.1 |
| 20260510150526 | 22 | 79 | 1.6 | 6.4 | 0.00 | 0.91 | 0.03 | 93 | 1017.0 |
| 20260510145530 | 22 | 84 | 1.6 | 4.8 | 0.00 | 0.91 | 0.03 | 95 | 1017.1 |
| 20260510145526 | 22 | 68 | 1.6 | 6.4 | 0.00 | 0.91 | 0.03 | 94 | 1017.2 |
| 20260510144526 | 21 | 89 | 1.6 | 6.4 | 0.00 | 0.91 | 0.03 | 95 | 1017.1 |
| 20260510144026 | 21 | 41 | 1.6 | 6.4 | 0.00 | 0.91 | 0.03 | 95 | 1017.1 |
| 20260510143755 | 21 | 82 | 1.6 | 3.2 | 0.00 | 0.91 | 0.03 | 95 | 1017.1 |
| 20260510143024 | 21 | 14 | 0.0 | 3.2 | 0.00 | 0.91 | 0.03 | 95 | 1017.2 |
| 20260510142524 | 21 | 136 | 1.6 | 3.2 | 0.00 | 0.91 | 0.03 | 95 | 1017.3 |
| 20260510142025 | 21 | 106 | 1.6 | 3.2 | 0.00 | 0.91 | 0.03 | 95 | 1017.4 |
| 20260510141524 | 20 | 120 | 1.6 | 4.8 | 0.00 | 0.91 | 0.03 | 95 | 1017.3 |
| 20260510141024 | 20 | 56 | 1.6 | 4.8 | 0.00 | 0.91 | 0.03 | 95 | 1017.3 |
| 20260510140524 | 20 | 57 | 1.6 | 4.8 | 0.00 | 0.91 | 0.03 | 95 | 1017.3 |
| 20260510140024 | 20 | 42 | 1.6 | 3.2 | 0.00 | 0.91 | 0.03 | 95 | 1017.2 |
| 20260510135524 | 20 | 69 | 1.6 | 3.2 | 0.00 | 0.91 | 0.03 | 95 | 1017.1 |
| 20260510135024 | 20 | 85 | 0.0 | 1.6 | 0.00 | 0.91 | 0.03 | 95 | 1017.0 |
| 20260510134522 | 20 | 94 | 0.0 | 1.6 | 0.00 | 0.91 | 0.03 | 95 | 1016.9 |
| 20260510134022 | 20 | 94 | 1.6 | 3.2 | 0.00 | 0.91 | 0.03 | 95 | 1016.8 |
| 20260510133522 | 20 | 94 | 1.6 | 3.2 | 0.00 | 0.91 | 0.03 | 95 | 1016.8 |
| 20260510133023 | 20 | 109 | 1.6 | 3.2 | 0.00 | 0.91 | 0.03 | 95 | 1016.7 |
| 20260510132522 | 20 | 103 | 1.6 | 3.2 | 0.00 | 0.91 | 0.03 | 95 | 1016.7 |
| 20260510132026 | 20 | 78 | 1.6 | 3.2 | 0.00 | 0.91 | 0.03 | 95 | 1016.7 |
| 20260510132022 | 19 | 71 | 1.6 | 3.2 | 0.00 | 0.91 | 0.03 | 95 | 1016.7 |
| 20260510131022 | 19 | 56 | 1.6 | 3.2 | 0.00 | 0.91 | 0.03 | 95 | 1016.7 |
| 20260510130522 | 19 | 75 | 1.6 | 3.2 | 0.00 | 0.91 | 0.03 | 95 | 1016.7 |
| 20260510130021 | 19 | 37 | 1.6 | 4.8 | 0.00 | 0.91 | 0.03 | 95 | 1016.7 |
| 20260510125520 | 19 | 27 | 1.6 | 4.8 | 0.00 | 0.91 | 0.03 | 95 | 1016.7 |
| 20260510125251 | 18 | 36 | 1.6 | 3.2 | 0.00 | 0.91 | 0.03 | 95 | 1016.6 |
| 20260510124751 | 18 | 70 | 1.6 | 4.8 | 0.00 | 0.91 | 0.03 | 95 | 1016.6 |
| 20260510124020 | 18 | 88 | 1.6 | 4.8 | 0.00 | 0.91 | 0.03 | 95 | 1016.5 |
| 20260510123750 | 18 | 64 | 1.6 | 4.8 | 0.00 | 0.91 | 0.03 | 96 | 1016.4 |
| 20260510123019 | 18 | 72 | 1.6 | 4.8 | 0.00 | 0.91 | 0.03 | 96 | 1016.3 |
| 20260510122521 | 18 | 95 | 1.6 | 3.2 | 0.00 | 0.91 | 0.03 | 96 | 1016.2 |
| 20260510122020 | 18 | 64 | 1.6 | 4.8 | 0.00 | 0.91 | 0.03 | 96 | 1016.2 |
| 20260510121520 | 18 | 45 | 1.6 | 4.8 | 0.00 | 0.91 | 0.03 | 95 | 1016.0 |
| 20260510121017 | 18 | 56 | 1.6 | 4.8 | 0.00 | 0.91 | 0.03 | 95 | 1015.9 |
| 20260510120516 | 18 | 96 | 1.6 | 4.8 | 0.00 | 0.91 | 0.03 | 95 | 1015.8 |
| 20260510120246 | 18 | 56 | 1.6 | 4.8 | 0.00 | 0.91 | 0.03 | 95 | 1015.8 |
| 20260510115747 | 18 | 68 | 0.0 | 3.2 | 0.00 | 0.91 | 0.03 | 95 | 1015.6 |
| 20260510115016 | -17 | 68 | 0.0 | 1.6 | 0.00 | 0.91 | 0.03 | 1015.6 | |
| 20260510114515 | -17 | 0.0 | 0.0 | 0.00 | 0.91 | 0.03 | 1015.5 | ||
| 20260510114247 | -17 | 0.0 | 0.0 | 0.00 | 0.91 | 0.03 | 1015.4 | ||
| 20260510113744 | -17 | 0.0 | 0.0 | 0.00 | 0.91 | 0.03 | 1015.3 | ||
| 20260510113012 | -17 | 0.0 | 0.0 | 0.00 | 0.91 | 0.03 | 1015.4 | ||
| 20260510112511 | -17 | 0.0 | 0.0 | 0.00 | 0.91 | 0.03 | 1015.3 | ||
| 20260510112240 | -17 | 0.0 | 0.0 | 0.00 | 0.91 | 0.03 | 1015.2 | ||
| 20260510111501 | -17 | 0.0 | 0.0 | 0.00 | 0.91 | 0.03 | 1015.1 | ||
| 20260510110918 | -17 | 0.0 | 0.0 | 0.00 | 0.91 | 0.03 | 1015.1 | ||
| 20260510110410 | -17 | 0.0 | 0.0 | 0.00 | 0.91 | 0.03 | 1015.1 | ||
| 20260510105815 | -17 | 0.0 | 0.0 | 0.00 | 0.91 | 0.03 | 1015.0 | ||
| 20260510105312 | -17 | 0.0 | 0.0 | 0.00 | 0.91 | 0.03 | 1014.8 | ||
| 20260510105047 | -17 | 0.0 | 0.0 | 0.00 | 0.91 | 0.03 | 1014.7 | ||
| 20260510104811 | -17 | 0.0 | 0.0 | 0.00 | 0.91 | 0.03 | 1014.8 | ||
| 20260510103808 | -17 | 0.0 | 0.0 | 0.00 | 0.91 | 0.03 | 1014.6 | ||
| 20260510103215 | -17 | 0.0 | 0.0 | 0.00 | 0.91 | 0.03 | 1014.4 | ||
| 20260510102712 | -17 | 0.0 | 0.0 | 0.00 | 0.91 | 0.03 | 1014.4 | ||
| 20260510102208 | -17 | 0.0 | 0.0 | 0.00 | 0.91 | 0.03 | 1014.4 | ||
| 20260510101708 | -17 | 75 | 0.0 | 0.0 | 0.00 | 0.91 | 0.03 | 1014.4 | |
| 20260510101117 | -17 | 75 | 0.0 | 1.6 | 0.00 | 0.91 | 0.03 | 1014.4 | |
| 20260510100618 | 17 | 75 | 0.0 | 1.6 | 0.00 | 0.91 | 0.03 | 95 | 1014.4 |
| 20260510100116 | 17 | 77 | 0.0 | 1.6 | 0.00 | 0.91 | 0.03 | 95 | 1014.3 |
| 20260510095616 | 18 | 77 | 0.0 | 1.6 | 0.00 | 0.91 | 0.03 | 95 | 1014.3 |
| 20260510095114 | 18 | 77 | 0.0 | 1.6 | 0.00 | 0.91 | 0.03 | 95 | 1014.2 |
| 20260510094614 | 18 | 77 | 0.0 | 3.2 | 0.00 | 0.91 | 0.03 | 95 | 1014.1 |
| 20260510094115 | 18 | 77 | 0.0 | 3.2 | 0.00 | 0.91 | 0.03 | 95 | 1014.1 |
| 20260510093614 | 18 | 112 | 0.0 | 3.2 | 0.00 | 0.91 | 0.03 | 95 | 1013.9 |
| 20260510093113 | 18 | 127 | 0.0 | 3.2 | 0.00 | 0.91 | 0.03 | 95 | 1013.7 |
| 20260510092614 | 18 | 129 | 0.0 | 1.6 | 0.00 | 0.91 | 0.03 | 95 | 1013.7 |
| 20260510092114 | 18 | 129 | 0.0 | 3.2 | 0.00 | 0.91 | 0.03 | 95 | 1013.6 |
| 20260510091614 | 18 | 129 | 0.0 | 3.2 | 0.00 | 0.91 | 0.03 | 95 | 1013.6 |
| 20260510091345 | 18 | 129 | 0.0 | 1.6 | 0.00 | 0.91 | 0.03 | 95 | 1013.7 |
| 20260510090614 | 18 | 129 | 0.0 | 1.6 | 0.00 | 0.91 | 0.03 | 95 | 1013.7 |
| 20260510090117 | 18 | 129 | 0.0 | 1.6 | 0.00 | 0.91 | 0.03 | 95 | 1013.5 |
| 20260510090113 | 18 | 129 | 0.0 | 1.6 | 0.00 | 0.91 | 0.03 | 95 | 1013.5 |
| 20260510085112 | 18 | 129 | 0.0 | 1.6 | 0.00 | 0.91 | 0.03 | 95 | 1013.5 |
| 20260510084616 | 18 | 129 | 0.0 | 1.6 | 0.00 | 0.91 | 0.03 | 95 | 1013.4 |
| 20260510084612 | 18 | 129 | 0.0 | 1.6 | 0.00 | 0.91 | 0.03 | 95 | 1013.5 |
| 20260510083612 | 18 | 129 | 0.0 | 1.6 | 0.00 | 0.91 | 0.03 | 95 | 1013.4 |
| 20260510083112 | 18 | 129 | 0.0 | 1.6 | 0.00 | 0.91 | 0.03 | 95 | 1013.4 |
| 20260510082612 | 18 | 129 | 0.0 | 1.6 | 0.00 | 0.94 | 0.03 | 95 | 1013.3 |
| 20260510082111 | 18 | 129 | 0.0 | 1.6 | 0.00 | 0.94 | 0.03 | 95 | 1013.2 |
| 20260510081610 | 18 | 129 | 0.0 | 1.6 | 0.00 | 0.94 | 0.03 | 95 | 1013.2 |
| 20260510081110 | 18 | 129 | 0.0 | 1.6 | 0.00 | 0.97 | 0.03 | 95 | 1013.3 |
| 20260510080608 | 18 | 129 | 0.0 | 0.0 | 0.00 | 0.99 | 0.03 | 95 | 1013.2 |
| 20260510080108 | 18 | 129 | 0.0 | 0.0 | 0.00 | 0.99 | 0.03 | 95 | 1013.1 |
| 20260510075608 | 18 | 129 | 0.0 | 0.0 | 0.00 | 1.02 | 0.03 | 95 | 1013.1 |
| 20260510075108 | 18 | 129 | 0.0 | 0.0 | 0.00 | 1.02 | 0.03 | 95 | 1013.0 |
| 20260510074606 | 18 | 129 | 0.0 | 0.0 | 0.03 | 1.04 | 0.03 | 95 | 1013.2 |
| 20260510074106 | 18 | 129 | 0.0 | 1.6 | 0.03 | 1.04 | 0.03 | 95 | 1013.1 |
| 20260510073607 | 18 | 129 | 0.0 | 1.6 | 0.03 | 1.07 | 0.03 | 95 | 1013.1 |
| 20260510073104 | 18 | 129 | 0.0 | 0.0 | 0.03 | 1.07 | 0.03 | 95 | 1013.2 |
| 20260510072601 | 18 | 129 | 0.0 | 1.6 | 0.03 | 1.07 | 0.03 | 95 | 1013.1 |
| 20260510072102 | 19 | 129 | 0.0 | 1.6 | 0.03 | 1.07 | 0.03 | 95 | 1013.0 |
| 20260510071602 | 19 | 129 | 0.0 | 1.6 | 0.03 | 1.07 | 0.03 | 95 | 1012.8 |
| 20260510071059 | 19 | 129 | 0.0 | 1.6 | 0.03 | 1.07 | 0.03 | 95 | 1012.7 |
| 20260510070600 | 19 | 129 | 0.0 | 1.6 | 0.03 | 1.07 | 0.03 | 95 | 1012.7 |
| 20260510070100 | 19 | 129 | 0.0 | 1.6 | 0.03 | 1.07 | 0.03 | 95 | 1012.7 |
| 20260510065600 | 19 | 129 | 0.0 | 1.6 | 0.03 | 1.07 | 0.03 | 95 | 1013.0 |
| 20260510065059 | 19 | 129 | 0.0 | 1.6 | 0.03 | 1.07 | 0.03 | 95 | 1012.7 |
| 20260510064600 | 19 | 129 | 0.0 | 1.6 | 0.00 | 1.04 | 0.00 | 95 | 1012.7 |
| 20260510064332 | 19 | 129 | 0.0 | 1.6 | 0.00 | 1.04 | 0.00 | 95 | 1012.8 |
| 20260510063558 | 19 | 95 | 0.0 | 1.6 | 0.00 | 1.04 | 0.00 | 95 | 1012.8 |
| 20260510063057 | 19 | 95 | 0.0 | 3.2 | 0.00 | 1.04 | 0.00 | 95 | 1012.8 |
| 20260510062829 | 19 | 95 | 0.0 | 3.2 | 0.00 | 1.04 | 0.00 | 95 | 1012.6 |
| 20260510062330 | 19 | 115 | 0.0 | 1.6 | 0.00 | 1.04 | 0.00 | 95 | 1012.6 |
| 20260510061558 | 19 | 115 | 0.0 | 1.6 | 0.00 | 1.04 | 0.00 | 95 | 1012.8 |
| 20260510061058 | 19 | 115 | 0.0 | 3.2 | 0.00 | 1.04 | 0.00 | 95 | 1012.9 |
| 20260510060555 | 19 | 120 | 0.0 | 3.2 | 0.00 | 1.04 | 0.00 | 95 | 1012.9 |
| 20260510060056 | 19 | 103 | 1.6 | 6.4 | 0.00 | 1.04 | 0.00 | 95 | 1013.0 |
| 20260510055556 | 19 | 127 | 1.6 | 6.4 | 0.00 | 1.04 | 0.00 | 95 | 1013.0 |
| 20260510055055 | 19 | 102 | 1.6 | 4.8 | 0.00 | 1.04 | 0.00 | 95 | 1012.9 |
| 20260510054554 | 19 | 86 | 0.0 | 3.2 | 0.00 | 1.04 | 0.00 | 95 | 1013.1 |
| 20260510054054 | 19 | 83 | 0.0 | 1.6 | 0.00 | 1.04 | 0.00 | 95 | 1013.5 |
| 20260510053553 | 19 | 62 | 0.0 | 3.2 | 0.00 | 1.04 | 0.00 | 95 | 1013.5 |
| 20260510053052 | 19 | 62 | 0.0 | 3.2 | 0.00 | 1.04 | 0.00 | 95 | 1013.6 |
| 20260510052552 | 19 | 61 | 0.0 | 1.6 | 0.00 | 1.04 | 0.00 | 95 | 1013.7 |
| 20260510052051 | 19 | 29 | 0.0 | 1.6 | 0.00 | 1.04 | 0.00 | 95 | 1013.8 |
| 20260510051552 | 19 | 28 | 0.0 | 1.6 | 0.00 | 1.04 | 0.00 | 95 | 1013.8 |
| 20260510051051 | 19 | 28 | 0.0 | 1.6 | 0.00 | 1.04 | 0.00 | 95 | 1013.7 |
| 20260510050552 | 19 | 28 | 0.0 | 0.0 | 0.00 | 1.07 | 0.00 | 95 | 1013.9 |
| 20260510050323 | 19 | 28 | 0.0 | 0.0 | 0.00 | 1.07 | 0.00 | 95 | 1014.0 |
| 20260510045552 | 19 | 28 | 0.0 | 0.0 | 0.00 | 1.07 | 1.07 | 95 | 1013.7 |
| 20260510045051 | 19 | 28 | 0.0 | 0.0 | 0.00 | 1.07 | 1.07 | 95 | 1013.6 |
| 20260510044550 | 19 | 28 | 0.0 | 0.0 | 0.00 | 1.07 | 1.07 | 95 | 1013.7 |
| 20260510044050 | 19 | 28 | 0.0 | 1.6 | 0.00 | 1.07 | 1.07 | 95 | 1013.6 |
| 20260510043821 | 19 | 28 | 0.0 | 1.6 | 0.00 | 1.07 | 1.07 | 95 | 1013.7 |
| 20260510043050 | 19 | 28 | 0.0 | 1.6 | 0.00 | 1.07 | 1.07 | 95 | 1014.0 |
| 20260510042551 | 19 | 28 | 0.0 | 1.6 | 0.00 | 1.07 | 1.07 | 95 | 1014.0 |
| 20260510042050 | 19 | 28 | 0.0 | 1.6 | 0.00 | 1.07 | 1.07 | 95 | 1013.7 |
| 20260510041548 | 19 | 28 | 0.0 | 1.6 | 0.00 | 1.07 | 1.07 | 95 | 1013.6 |
| 20260510041049 | 19 | 25 | 0.0 | 0.0 | 0.00 | 1.07 | 1.07 | 95 | 1014.0 |
| 20260510040547 | 19 | 25 | 0.0 | 0.0 | 0.00 | 1.07 | 1.07 | 95 | 1014.1 |
| 20260510040046 | 19 | 25 | 0.0 | 0.0 | 0.00 | 1.07 | 1.07 | 95 | 1014.1 |
| 20260510035546 | 19 | 25 | 0.0 | 1.6 | 0.00 | 1.07 | 1.07 | 95 | 1014.2 |
| 20260510035318 | 19 | 25 | 0.0 | 1.6 | 0.00 | 1.07 | 1.07 | 95 | 1014.1 |
| 20260510034547 | 19 | 25 | 0.0 | 1.6 | 0.00 | 1.07 | 1.07 | 95 | 1013.9 |
| 20260510034046 | 19 | 25 | 0.0 | 1.6 | 0.00 | 1.07 | 1.07 | 95 | 1014.0 |
| 20260510033547 | 19 | 25 | 0.0 | 1.6 | 0.00 | 1.07 | 1.07 | 95 | 1014.2 |
| 20260510033316 | 20 | 25 | 0.0 | 1.6 | 0.00 | 1.07 | 1.07 | 95 | 1014.1 |
| 20260510032546 | 20 | 25 | 0.0 | 1.6 | 0.00 | 1.07 | 1.07 | 95 | 1014.1 |
| 20260510032046 | 20 | 25 | 0.0 | 0.0 | 0.00 | 1.07 | 1.07 | 95 | 1014.1 |
| 20260510031546 | 20 | 25 | 0.0 | 0.0 | 0.00 | 1.07 | 1.07 | 95 | 1014.0 |
| 20260510031044 | 20 | 25 | 0.0 | 1.6 | 0.00 | 1.07 | 1.07 | 95 | 1014.0 |
| 20260510030544 | 20 | 25 | 0.0 | 1.6 | 0.00 | 1.07 | 1.07 | 95 | 1013.9 |
| 20260510030047 | 20 | 25 | 0.0 | 0.0 | 0.00 | 1.07 | 1.07 | 95 | 1013.7 |
| 20260510030043 | 20 | 25 | 0.0 | 0.0 | 0.00 | 1.07 | 1.07 | 95 | 1013.7 |
| 20260510025043 | 20 | 25 | 0.0 | 0.0 | 0.00 | 1.07 | 1.07 | 95 | 1013.7 |
| 20260510024542 | 20 | 25 | 0.0 | 1.6 | 0.00 | 1.07 | 1.07 | 95 | 1013.7 |
| 20260510024042 | 20 | 25 | 0.0 | 1.6 | 0.00 | 1.07 | 1.07 | 95 | 1013.5 |
| 20260510023542 | 20 | 358 | 0.0 | 3.2 | 0.00 | 1.07 | 1.07 | 95 | 1013.5 |
| 20260510023042 | 20 | 358 | 0.0 | 3.2 | 0.00 | 1.09 | 1.07 | 95 | 1013.5 |
| 20260510022542 | 20 | 47 | 1.6 | 3.2 | 0.00 | 1.12 | 1.07 | 95 | 1013.4 |
| 20260510022040 | 20 | 72 | 1.6 | 3.2 | 0.00 | 1.12 | 1.07 | 95 | 1013.2 |
| 20260510021540 | 20 | 97 | 0.0 | 3.2 | 0.00 | 1.12 | 1.07 | 95 | 1013.3 |
| 20260510021040 | 20 | 61 | 0.0 | 3.2 | 0.03 | 1.14 | 1.07 | 95 | 1013.3 |
| 20260510020540 | 20 | 68 | 0.0 | 1.6 | 0.03 | 1.14 | 1.07 | 94 | 1013.7 |
| 20260510020040 | 20 | 68 | 0.0 | 1.6 | 0.03 | 1.14 | 1.07 | 95 | 1013.9 |
| 20260510015540 | 20 | 68 | 0.0 | 1.6 | 0.03 | 1.14 | 1.07 | 95 | 1013.8 |
| 20260510015039 | 20 | 68 | 1.6 | 3.2 | 0.03 | 1.14 | 1.07 | 95 | 1013.7 |
| 20260510014538 | 20 | 68 | 1.6 | 3.2 | 0.03 | 1.14 | 1.07 | 95 | 1013.6 |
| 20260510014037 | 20 | 63 | 1.6 | 3.2 | 0.03 | 1.14 | 1.07 | 94 | 1013.5 |
| 20260510013536 | 20 | 63 | 0.0 | 3.2 | 0.03 | 1.14 | 1.07 | 94 | 1013.5 |
| 20260510013308 | 20 | 55 | 0.0 | 3.2 | 0.03 | 1.14 | 1.07 | 94 | 1013.5 |
| 20260510013141 | 20 | 55 | 1.6 | 3.2 | 0.03 | 1.17 | 1.07 | 94 | 1013.4 |
| 20260510012640 | 20 | 71 | 1.6 | 3.2 | 0.03 | 1.19 | 1.07 | 94 | 1013.3 |
| 20260510011541 | 20 | 60 | 0.0 | 1.6 | 0.00 | 1.17 | 1.04 | 94 | 1013.6 |
| 20260510011537 | 20 | 74 | 0.0 | 3.2 | 0.03 | 1.19 | 1.07 | 94 | 1013.4 |
| 20260510010536 | 20 | 60 | 0.0 | 1.6 | 0.00 | 1.19 | 1.04 | 94 | 1013.5 |
| 20260510010307 | 20 | 60 | 0.0 | 3.2 | 0.00 | 1.19 | 1.04 | 94 | 1013.6 |
| 20260510005536 | 20 | 71 | 0.0 | 3.2 | 0.03 | 1.22 | 1.04 | 94 | 1013.5 |
| 20260510005034 | 20 | 88 | 0.0 | 1.6 | 0.03 | 1.22 | 1.04 | 94 | 1013.3 |
| 20260510004805 | 20 | 78 | 0.0 | 0.0 | 0.03 | 1.22 | 1.04 | 94 | 1013.5 |
| 20260510004034 | 20 | 78 | 0.0 | 0.0 | 0.03 | 1.22 | 1.04 | 94 | 1013.6 |
| 20260510003534 | 20 | 78 | 0.0 | 1.6 | 0.03 | 1.22 | 1.04 | 94 | 1013.5 |
| 20260510003034 | 20 | 78 | 0.0 | 3.2 | 0.03 | 1.22 | 1.04 | 94 | 1013.3 |
| 20260510002534 | 20 | 78 | 1.6 | 4.8 | 0.03 | 1.22 | 1.04 | 94 | 1013.3 |
| 20260510002039 | 20 | 63 | 1.6 | 4.8 | 0.03 | 1.22 | 1.04 | 94 | 1012.9 |
| 20260510002035 | 20 | 72 | 1.6 | 4.8 | 0.03 | 1.22 | 1.04 | 94 | 1013.2 |
| 20260510001035 | 20 | 44 | 1.6 | 4.8 | 0.03 | 1.22 | 1.04 | 94 | 1012.8 |
| 20260510000533 | 20 | 56 | 1.6 | 4.8 | 0.03 | 1.22 | 1.04 | 94 | 1012.6 |
| 20260510000032 | 20 | 62 | 1.6 | 3.2 | 0.03 | 1.22 | 1.04 | 94 | 1012.6 |
| 20260509235533 | 20 | 73 | 1.6 | 3.2 | 0.03 | 1.19 | 1.02 | 94 | 1012.6 |
| 20260509235032 | 20 | 34 | 0.0 | 1.6 | 0.03 | 1.19 | 1.02 | 94 | 1012.7 |
| 20260509234532 | 20 | 35 | 0.0 | 1.6 | 0.03 | 1.19 | 1.02 | 94 | 1012.7 |
| 20260509234032 | 20 | 34 | 0.0 | 3.2 | 0.03 | 1.19 | 1.02 | 94 | 1012.7 |
| 20260509233802 | 20 | 65 | 1.6 | 3.2 | 0.03 | 1.19 | 1.02 | 94 | 1012.7 |
| 20260509233032 | 20 | 347 | 0.0 | 3.2 | 0.03 | 1.19 | 1.02 | 94 | 1012.6 |
| 20260509232532 | 20 | 53 | 1.6 | 8.0 | 0.03 | 1.19 | 1.02 | 94 | 1012.4 |
| 20260509232032 | 20 | 352 | 3.2 | 8.0 | 0.03 | 1.19 | 1.02 | 94 | 1011.9 |
| 20260509231803 | 20 | 86 | 3.2 | 9.7 | 0.03 | 1.19 | 1.02 | 94 | 1011.3 |
| 20260509231030 | 20 | 61 | 3.2 | 9.7 | 0.03 | 1.22 | 1.02 | 94 | 1011.2 |
| 20260509230530 | 21 | 74 | 3.2 | 9.7 | 0.03 | 1.22 | 1.02 | 93 | 1011.3 |
| 20260509230302 | 21 | 86 | 1.6 | 4.8 | 0.05 | 1.22 | 1.02 | 93 | 1011.7 |
| 20260509225530 | 21 | 160 | 0.0 | 1.6 | 0.03 | 1.19 | 0.99 | 94 | 1012.0 |
| 20260509225030 | 21 | 104 | 0.0 | 1.6 | 0.03 | 1.19 | 0.99 | 93 | 1012.3 |
| 20260509224530 | 21 | 104 | 0.0 | 0.0 | 0.03 | 1.19 | 0.99 | 93 | 1012.4 |
| 20260509224030 | 21 | 104 | 0.0 | 0.0 | 0.03 | 1.22 | 0.99 | 93 | 1012.5 |
| 20260509223530 | 21 | 320 | 0.0 | 0.0 | 0.03 | 1.22 | 0.99 | 93 | 1012.7 |
| 20260509223301 | 21 | 320 | 0.0 | 1.6 | 0.03 | 1.24 | 0.99 | 93 | 1012.7 |
| 20260509222528 | 21 | 319 | 0.0 | 1.6 | 0.03 | 1.27 | 0.99 | 93 | 1012.5 |
| 20260509222028 | 21 | 317 | 0.0 | 1.6 | 0.05 | 1.30 | 0.99 | 93 | 1012.3 |
| 20260509221527 | 21 | 317 | 0.0 | 1.6 | 0.05 | 1.32 | 0.99 | 93 | 1012.5 |
| 20260509221259 | 21 | 317 | 0.0 | 1.6 | 0.05 | 1.35 | 0.99 | 93 | 1012.4 |
| 20260509220528 | 21 | 340 | 0.0 | 1.6 | 0.05 | 1.37 | 0.99 | 93 | 1012.4 |
| 20260509220027 | 21 | 68 | 0.0 | 1.6 | 0.03 | 1.37 | 0.97 | 93 | 1012.2 |
| 20260509215528 | 21 | 100 | 0.0 | 1.6 | 0.03 | 1.37 | 0.97 | 92 | 1012.0 |
| 20260509215258 | 21 | 100 | 0.0 | 1.6 | 0.03 | 1.37 | 0.97 | 92 | 1012.5 |
| 20260509214528 | 21 | 101 | 0.0 | 1.6 | 0.03 | 1.37 | 0.97 | 92 | 1012.5 |
| 20260509214258 | 21 | 101 | 0.0 | 1.6 | 0.03 | 1.40 | 0.97 | 92 | 1012.6 |
| 20260509213526 | 21 | 101 | 0.0 | 3.2 | 0.03 | 1.40 | 0.97 | 92 | 1012.6 |
| 20260509213026 | 21 | 101 | 0.0 | 3.2 | 0.03 | 1.42 | 0.97 | 92 | 1012.6 |
| 20260509212756 | 21 | 322 | 0.0 | 3.2 | 0.03 | 1.47 | 0.97 | 91 | 1012.6 |
| 20260509212026 | 21 | 322 | 0.0 | 3.2 | 0.00 | 1.47 | 0.94 | 91 | 1012.6 |
| 20260509211526 | 21 | 212 | 0.0 | 4.8 | 0.00 | 1.50 | 0.94 | 91 | 1012.3 |
| 20260509211025 | 21 | 212 | 1.6 | 4.8 | 0.00 | 1.50 | 0.94 | 91 | 1012.2 |
| 20260509210526 | 21 | 53 | 1.6 | 4.8 | 0.00 | 1.50 | 0.94 | 91 | 1011.6 |
| 20260509210026 | 21 | 204 | 0.0 | 3.2 | 0.00 | 1.55 | 0.94 | 91 | 1011.5 |
| 20260509205526 | 21 | 27 | 0.0 | 3.2 | 0.00 | 1.68 | 0.94 | 91 | 1011.9 |
| 20260509205026 | 21 | 6 | 0.0 | 3.2 | 0.00 | 1.75 | 0.94 | 91 | 1012.2 |
| 20260509204524 | 21 | 23 | 0.0 | 3.2 | 0.00 | 1.83 | 0.94 | 91 | 1012.2 |
| 20260509204024 | 21 | 23 | 0.0 | 3.2 | 0.00 | 1.93 | 0.94 | 91 | 1012.2 |
| 20260509203528 | 21 | 294 | 1.6 | 6.4 | 0.00 | 2.06 | 0.94 | 91 | 1012.4 |
| 20260509203524 | 21 | 294 | 0.0 | 3.2 | 0.00 | 2.06 | 0.94 | 91 | 1012.2 |
| 20260509202524 | 21 | 84 | 0.0 | 6.4 | 0.00 | 2.06 | 0.94 | 91 | 1012.0 |
| 20260509202024 | 21 | 329 | 0.0 | 3.2 | 0.00 | 2.06 | 0.94 | 91 | 1012.3 |
| 20260509201524 | 21 | 234 | 0.0 | 4.8 | 0.00 | 2.08 | 0.94 | 91 | 1012.2 |
| 20260509201024 | 21 | 283 | 0.0 | 4.8 | 0.00 | 2.08 | 0.94 | 90 | 1012.0 |
| 20260509200524 | 21 | 103 | 1.6 | 9.7 | 0.00 | 2.08 | 0.94 | 91 | 1011.9 |
| 20260509200024 | 21 | 327 | 1.6 | 9.7 | 0.00 | 2.08 | 0.94 | 90 | 1011.6 |
| 20260509195521 | 21 | 317 | 3.2 | 8.0 | 0.00 | 2.08 | 0.94 | 91 | 1011.3 |
| 20260509195022 | 21 | 68 | 3.2 | 8.0 | 0.00 | 2.08 | 0.94 | 90 | 1010.4 |
| 20260509194758 | 22 | 321 | 1.6 | 8.0 | 0.00 | 2.08 | 0.94 | 89 | 1011.1 |
| 20260509194522 | 22 | 223 | 3.2 | 8.0 | 0.00 | 2.08 | 0.94 | 89 | 1010.9 |
| 20260509193522 | 22 | 319 | 1.6 | 6.4 | 0.00 | 2.08 | 0.94 | 88 | 1010.3 |
| 20260509193022 | 22 | 206 | 3.2 | 9.7 | 0.00 | 2.08 | 0.94 | 88 | 1009.4 |
| 20260509192523 | 22 | 86 | 1.6 | 9.7 | 0.00 | 2.08 | 0.94 | 87 | 1009.4 |
| 20260509192022 | 22 | 117 | 1.6 | 4.8 | 0.00 | 2.08 | 0.94 | 88 | 1010.2 |
| 20260509191522 | 22 | 321 | 1.6 | 4.8 | 0.00 | 2.08 | 0.94 | 87 | 1010.6 |
| 20260509191022 | 22 | 314 | 1.6 | 4.8 | 0.00 | 2.08 | 0.94 | 87 | 1010.7 |
| 20260509190522 | 22 | 50 | 1.6 | 4.8 | 0.00 | 2.08 | 0.94 | 87 | 1010.9 |
| 20260509190254 | 22 | 1 | 1.6 | 4.8 | 0.00 | 2.08 | 0.94 | 86 | 1011.0 |
| 20260509185522 | 22 | 6 | 0.0 | 3.2 | 0.00 | 2.08 | 0.94 | 86 | 1010.6 |
| 20260509185022 | 22 | 233 | 1.6 | 6.4 | 0.00 | 2.08 | 0.94 | 86 | 1010.6 |
| 20260509184523 | 22 | 213 | 1.6 | 8.0 | 0.00 | 2.08 | 0.94 | 86 | 1010.5 |
| 20260509184022 | 22 | 82 | 1.6 | 8.0 | 0.00 | 2.08 | 0.94 | 86 | 1010.4 |
| 20260509183522 | 22 | 180 | 1.6 | 8.0 | 0.00 | 2.11 | 0.94 | 87 | 1010.1 |
| 20260509183022 | 22 | 146 | 3.2 | 8.0 | 0.00 | 2.11 | 0.94 | 88 | 1010.0 |
| 20260509182522 | 22 | 155 | 3.2 | 9.7 | 0.00 | 2.24 | 0.94 | 89 | 1010.0 |
| 20260509182020 | 21 | 94 | 4.8 | 14.5 | 0.00 | 2.24 | 0.94 | 91 | 1010.1 |
| 20260509181751 | 21 | 101 | 6.4 | 14.5 | 0.00 | 2.24 | 0.94 | 91 | 1010.2 |
| 20260509181630 | 20 | 70 | 4.8 | 9.7 | 0.05 | 2.24 | 0.94 | 94 | 1011.1 |
| 20260509181024 | 21 | 96 | 4.8 | 16.1 | 0.03 | 2.24 | 0.94 | 93 | 1010.8 |
| 20260509181020 | 21 | 117 | 6.4 | 16.1 | 0.03 | 2.24 | 0.94 | 93 | 1010.3 |